Regional Weather Roundup
Issued by NWS

Home | Current Version | Previous Version | Graphics & Text | Print | Product List | Glossary On
Versions: 1 2 3 4 5 6 7 8 9 10 11 12 13 14 15 16 17 18 19 20 21 22 23 24 25 26 27 28 29 30 31 32 33 34 35 36 37 38 39 40 41 42 43 44 45 46 47 48 49 50
827
ASUS43 KTOP 240159
RWRKS

WEATHER ROUNDUP FOR KANSAS
NATIONAL WEATHER SERVICE GOODLAND KS
900 PM CDT TUE AUG 23 2016

NOTE:  "FAIR" INDICATES FEW OR NO CLOUDS BELOW 12,000 FEET WITH NO
SIGNIFICANT WEATHER AND/OR OBSTRUCTIONS TO VISIBILITY.

KSZ001>006-013>018-027>032-041>047-240300-
NORTHWEST KANSAS

CITY           SKY/WX    TMP DP  RH WIND       PRES   REMARKS
GOODLAND       CLEAR     69  49  48 N8        29.96R
HAYS           CLEAR     84  64  51 S14       29.82R
HILL CITY      CLEAR     78  62  57 N9        29.83R
RUSSELL        CLEAR     86  67  52 S22G32    29.81R
$$

KSZ061>065-074>080-084>089-240300-
SOUTHWEST KANSAS

CITY           SKY/WX    TMP DP  RH WIND       PRES   REMARKS
DODGE CITY     CLEAR     83  61  47 S18       29.89R
ELKHART          N/A     83  50  32 S5          N/A
GARDEN CITY    CLEAR     81  56  42 SE7       29.87R
GREAT BEND     PTCLDY    81  64  57 S13       29.85R
LIBERAL        PTCLDY    82  48  30 S21       29.92R
$$

KSZ066>073-081>083-090>101-240300-
SOUTHEAST KANSAS

CITY           SKY/WX    TMP DP  RH WIND       PRES   REMARKS
CHANUTE        CLOUDY    79  71  76 S8        29.95R
COFFEYVILLE    PTCLDY    83  70  64 S10       29.96R
HUTCHINSON     CLOUDY    86  70  58 S22G28    29.87R
NEWTON         CLOUDY    81  72  74 S16       29.91R
PARSONS        MOCLDY    82  70  66 VRB7      29.98R
WICHITA INTL   CLOUDY    83  71  67 S13       29.90R
WICHITA JABRA  MOCLDY    82  72  71 S15       29.91R
WINFIELD       CLOUDY    83  71  67 S15       29.94R
$$

KSZ007>012-019>026-033>040-048>060-102>105-240300-
NORTHEAST KANSAS

CITY           SKY/WX    TMP DP  RH WIND       PRES   REMARKS
CONCORDIA      CLOUDY    74  66  76 SE13      29.83R
EMPORIA        MOCLDY    78  72  81 SE12G20   29.92S
LAWRENCE       PTCLDY    80  72  76 S14       29.91F
MANHATTAN      PTCLDY    82  72  71 S14G23    29.85S
OLATHE IND     CLOUDY    80  72  76 S13       29.96F
OLATHE EXE     CLOUDY    79  71  76 S12       29.96F
SALINA         PTCLDY    87  71  58 S22G32    29.83R
TOPEKA BILLARD CLOUDY    81  72  74 S13       29.89F
TOPEKA FORBES  CLOUDY    82  71  69 S14G22    29.90F
$$




USA.gov is the U.S. government's official web portal to all federal, state and local government web resources and services.